#timestamp,LO_Frequency,Hit,StdDev 
1600315215.8,286046999.8,N
1600315235.6,286047002.4,N
1600315255.5,286047002.6,N
1600315275.3,286046999.9,N
1600315295.2,286047001.6,N
1600315315.9,286047001.5,N
1600315335.7,286047001.9,N
1600315355.6,286047002.7,N
1600315375.4,286047003.8,N
1600315395.2,286047001.5,N
1600315415.1,286047002.5,N
1600315416.0,286047002.5,N
1600315435.8,286046999.7,N
1600315455.7,286047000.0,N
1600315475.5,286047000.0,N
1600315495.3,286047002.0,N
1600315515.2,286047004.0,N
1600315535.0,286047001.8,N
1600315535.9,286047001.8,N
1600315555.7,286047004.2,Y
1600315575.6,286047001.5,P
1600315595.4,286047003.8,P
1600315615.3,286047001.8,N
1600315635.1,286047002.6,N
1600315636.0,286047002.6,Y
1600315655.8,286046998.2,P
1600315675.7,286046996.5,N
1600315695.5,286046999.1,N
1600315715.4,286046998.7,N
1600315735.2,286046998.5,N
1600315755.0,286047000.4,N
1600315756.0,286047000.4,N
1600315775.8,286047000.3,N
1600315795.6,286046998.8,N
1600315815.5,286046998.9,N
1600315835.3,286046998.9,N
1600315855.1,286046999.0,N
1600315875.9,286046996.9,N
1600315895.7,286046999.6,N
1600315915.5,286046998.9,N
1600315935.4,286046999.1,N
1600315955.2,286046999.5,N
1600315975.1,286046996.5,N
1600315976.0,286046996.5,N
1600315995.8,286046999.1,N
1600316015.6,286046999.0,N
1600316035.5,286046998.8,N
1600316055.3,286046999.1,N
1600316075.1,286046998.9,N
1600316095.9,286046998.7,N
1600316115.7,286046999.0,N
1600316135.6,286046999.1,N
1600316155.4,286046999.5,N
1600316175.2,286046998.3,N
1600316195.1,286046998.6,N
1600316196.0,286046998.6,N
1600316215.8,286046999.0,N
1600316235.6,286046998.5,N
1600316255.5,286046999.2,N
1600316275.3,286046998.9,N
1600316295.2,286046999.0,N
1600316315.9,286046999.5,N
1600316335.7,286046998.2,N
1600316355.6,286047000.9,N
1600316375.4,286046998.3,N
1600316395.2,286046998.6,N
1600316415.1,286046998.1,N
1600316416.0,286046998.1,N
1600316435.8,286046999.3,N
1600316455.7,286046997.4,Y
1600316475.5,286046999.0,P
1600316495.3,286046998.9,P
1600316515.2,286046998.4,P
1600316535.0,286046998.5,Y
1600316535.9,286046998.5,P
1600316555.8,286047002.7,P
1600316575.6,286047000.0,N
1600316595.4,286047000.7,N
1600316615.3,286047001.2,N
1600316635.1,286047002.5,N
1600316655.9,286047004.4,N
1600316675.7,286047002.5,N
1600316695.5,286047002.0,N
1600316715.4,286046999.9,N
1600316735.2,286047000.4,N
1600316755.0,286047000.5,N
1600316755.9,286047000.5,N
1600316775.8,286047000.6,N
1600316795.6,286047000.1,N
1600316815.5,286047002.4,N
1600316835.3,286047002.6,N
1600316855.1,286047000.5,N
1600316875.9,286047000.9,N
1600316895.7,286046998.2,N
1600316915.5,286047000.0,N
1600316935.4,286047002.8,N
1600316955.2,286047001.9,N
1600316975.1,286047002.0,N
1600316976.0,286047002.0,N
1600316995.8,286047000.5,N
1600317015.6,286047001.0,N
1600317035.5,286046999.4,N
1600317055.3,286046997.7,N
1600317075.1,286046997.0,N
1600317095.9,286046997.3,N
1600317115.7,286046996.9,N
1600317135.6,286046998.5,N
1600317155.4,286046997.7,N
1600317175.2,286046996.5,N
1600317195.1,286046998.6,N
1600317196.0,286046998.6,N
1600317215.8,286046998.3,N
1600317235.6,286046998.1,N
1600317255.5,286046998.1,N
1600317275.3,286046998.1,N
1600317295.2,286046997.2,N
1600317315.9,286046999.5,N
1600317335.7,286046998.5,N
1600317355.6,286046998.8,N
1600317375.4,286047000.8,N
1600317395.2,286046998.1,N
1600317415.1,286046999.0,N
1600317416.0,286046999.0,N
1600317435.8,286046998.1,N
1600317455.7,286046999.4,N
1600317475.5,286046997.2,N
1600317495.3,286046997.2,N
1600317515.2,286046998.6,N
1600317535.0,286046998.6,N
1600317535.9,286046998.6,N
1600317555.8,286046998.4,N
1600317575.6,286046998.6,N
1600317595.4,286046998.4,N
1600317615.3,286046998.3,N
1600317635.1,286046998.8,N
1600317636.0,286046998.8,N
1600317655.8,286046999.0,N
1600317675.6,286046996.7,Y
1600317695.4,286047000.2,P
1600317715.2,286047000.8,N
1600317735.1,286047002.7,N
1600317736.0,286047002.7,N
1600317755.8,286047000.9,N
1600317775.7,286046998.7,N
1600317795.5,286046998.5,N
1600317815.3,286046998.1,N
1600317835.2,286046998.4,N
1600317855.0,286047002.5,N
1600317855.9,286047002.5,N
1600317875.8,286047000.9,N
1600317895.6,286046998.5,N
1600317915.4,286047000.4,N
1600317935.3,286047000.8,N
1600317955.1,286047001.1,N
1600317975.9,286046998.8,N
1600317995.7,286047000.8,N
1600318015.5,286046998.5,N
1600318035.4,286047000.4,N
1600318055.2,286047001.1,N
1600318075.1,286047000.4,N
1600318076.0,286047000.4,N
1600318095.8,286047000.6,N
1600318115.7,286046998.6,N
1600318135.5,286046998.5,N
1600318155.3,286046998.6,N
1600318175.2,286046998.4,N
1600318195.0,286046998.6,N
1600318195.9,286046998.6,N
1600318215.8,286046998.9,N
1600318235.6,286046999.0,N
1600318255.4,286046998.9,N
1600318275.3,286047000.0,N
1600318295.1,286047002.4,N
1600318315.9,286047002.7,N
1600318335.7,286047000.6,N
1600318355.5,286047002.4,N
1600318375.4,286047001.5,N
1600318395.2,286046999.8,N
1600318415.0,286047000.2,N
1600318415.9,286047000.2,N
1600318435.8,286047000.0,N
1600318455.6,286046998.4,N
1600318475.5,286046999.0,N
1600318495.3,286046998.6,N
1600318515.1,286046998.3,N
1600318535.9,286046998.8,N
1600318555.7,286046999.5,N
1600318575.5,286046999.3,N
1600318595.4,286047001.2,N
1600318615.2,286047000.2,N
1600318635.1,286046999.8,N
1600318636.0,286046999.8,N
1600318655.8,286047000.0,N
1600318675.6,286047000.1,N
1600318695.5,286047004.3,Y
1600318715.3,286047001.3,P
1600318735.2,286047002.5,P
1600318755.9,286047002.8,N
1600318775.7,286047000.0,N
1600318795.6,286047002.1,N
